Plovdiv, Bulgaria

10:41 PM EET on December 05, 2019 (GMT +0200)
Plovdiv

Weather History for LBPD - October, 2019

Change the Weather History Date:

Saturday, October 19, 2019

  Actual Average (WUND) Record (WUND)
Temperature  
Mean Temperature 62 °F -  
Max Temperature 77 °F - - (-1)
Min Temperature 48 °F - - (-1)
Degree Days  
Heating Degree Days 2    
Growing Degree Days 12 (Base 50)    
Moisture  
Dew Point 47 °F    
Average Humidity 61    
Maximum Humidity 82    
Minimum Humidity 38    
Precipitation  
Precipitation 0.00 in - - ()
Sea Level Pressure  
Sea Level Pressure 30.08 in    
Wind  
Wind Speed 4 mph ()    
Max Wind Speed 9 mph    
Max Gust Speed -    
Visibility 6.2 miles    
Events      
Averages and records for this station are not official NWS values.
T = Trace of Precipitation, MM = Missing Value Source: Averaged Metar Reports

Daily Weather History Graph

Daily Weather History Graph

Search for Another Location

Airport or City:

Astronomy

Oct. 19, 2019 Rise Set
Actual Time 7:37 AM EEST 6:33 PM EEST
Civil Twilight 7:09 AM EEST 7:02 PM EEST
Nautical Twilight 6:36 AM EEST 7:34 PM EEST
Astronomical Twilight 6:04 AM EEST 8:06 PM EEST
Moon 10:20 PM EEST (10/19) 12:55 PM EEST (10/19)
Length of Visible Light 11h 52m
Length of Day
10h 56m
Waning Gibbous, 72% of the Moon is Illuminated
Oct 19
Waning Gibbous
Oct 21
Last Quarter
Oct 28
New
Nov 4
First Quarter
Nov 12
Full

Hourly Weather History & Observations

Time (EEST) Temp. Dew Point Humidity Pressure Visibility Wind Dir Wind Speed Gust Speed Precip Events Conditions
12:00 AM 55.4 °F 46.4 °F 72% 30.06 in 6.2 mi West 5.8 mph - N/A   Unknown
12:30 AM 57.2 °F 46.4 °F 67% 30.06 in 6.2 mi West 4.6 mph - N/A   Unknown
1:00 AM 53.6 °F 44.6 °F 72% 30.06 in 6.2 mi WSW 3.5 mph - N/A   Unknown
1:30 AM 57.2 °F 46.4 °F 67% 30.06 in 6.2 mi West 4.6 mph - N/A   Unknown
2:00 AM 55.4 °F 46.4 °F 72% 30.06 in 6.2 mi WNW 4.6 mph - N/A   Unknown
2:30 AM 53.6 °F 44.6 °F 72% 30.06 in 6.2 mi West 3.5 mph - N/A   Unknown
3:00 AM 53.6 °F 46.4 °F 77% 30.06 in 6.2 mi West 3.5 mph - N/A   Unknown
3:30 AM 53.6 °F 44.6 °F 72% 30.06 in 6.2 mi West 4.6 mph - N/A   Unknown
4:00 AM 51.8 °F 44.6 °F 76% 30.06 in 6.2 mi West 4.6 mph - N/A   Unknown
4:30 AM 51.8 °F 44.6 °F 76% 30.06 in 6.2 mi West 5.8 mph - N/A   Partly Cloudy
5:00 AM 50.0 °F 44.6 °F 82% 30.06 in 6.2 mi SW 4.6 mph - N/A   Unknown
5:30 AM 48.2 °F 42.8 °F 82% 30.09 in 6.2 mi West 4.6 mph - N/A   Unknown
6:00 AM 50.0 °F 44.6 °F 82% 30.09 in 6.2 mi SW 4.6 mph - N/A   Unknown
6:30 AM 51.8 °F 46.4 °F 82% 30.09 in 6.2 mi Calm Calm - N/A   Unknown
7:00 AM 53.6 °F 44.6 °F 72% 30.09 in 6.2 mi Calm Calm - N/A   Unknown
7:30 AM 51.8 °F 44.6 °F 76% 30.09 in 6.2 mi West 2.3 mph - N/A   Unknown
8:00 AM 51.8 °F 44.6 °F 76% 30.09 in 6.2 mi West 1.2 mph - N/A   Unknown
8:30 AM 53.6 °F 44.6 °F 72% 30.09 in 6.2 mi Calm Calm - N/A   Unknown
9:00 AM 55.4 °F 48.2 °F 77% 30.12 in 6.2 mi Calm Calm - N/A   Unknown
9:30 AM 59.0 °F 46.4 °F 63% 30.12 in 6.2 mi NW 3.5 mph - N/A   Unknown
10:00 AM 60.8 °F 46.4 °F 59% 30.12 in 6.2 mi NW 5.8 mph - N/A   Unknown
11:00 AM 68.0 °F 46.4 °F 46% 30.12 in 6.2 mi Variable 1.2 mph - N/A   Unknown
11:30 AM 68.0 °F 46.4 °F 46% 30.12 in 6.2 mi ENE 3.5 mph - N/A   Unknown
12:00 PM 69.8 °F 48.2 °F 46% 30.09 in 6.2 mi Variable 3.5 mph - N/A   Unknown
12:30 PM 71.6 °F 50.0 °F 46% 30.09 in 6.2 mi Variable 4.6 mph - N/A   Unknown
1:00 PM 73.4 °F 51.8 °F 47% 30.09 in 6.2 mi Variable 3.5 mph - N/A   Unknown
1:30 PM 73.4 °F 50.0 °F 44% 30.06 in 6.2 mi Variable 2.3 mph - N/A   Unknown
2:00 PM 75.2 °F 50.0 °F 41% 30.06 in 6.2 mi NNE 4.6 mph - N/A   Unknown
2:30 PM 75.2 °F 50.0 °F 41% 30.06 in 6.2 mi East 5.8 mph - N/A   Unknown
3:00 PM 75.2 °F 50.0 °F 41% 30.06 in 6.2 mi East 6.9 mph - N/A   Unknown
3:30 PM 77.0 °F 51.8 °F 41% 30.04 in 6.2 mi Variable 5.8 mph - N/A   Unknown
4:00 PM 75.2 °F 51.8 °F 44% 30.04 in 6.2 mi East 9.2 mph - N/A   Unknown
4:30 PM 77.0 °F 51.8 °F 41% 30.04 in 6.2 mi ENE 5.8 mph - N/A   Unknown
5:00 PM 77.0 °F 50.0 °F 39% 30.04 in 6.2 mi East 8.1 mph - N/A   Unknown
5:30 PM 77.0 °F 50.0 °F 39% 30.04 in 6.2 mi ENE 8.1 mph - N/A   Unknown
6:00 PM 75.2 °F 48.2 °F 38% 30.04 in 6.2 mi ENE 4.6 mph - N/A   Unknown
6:30 PM 69.8 °F 48.2 °F 46% 30.06 in 6.2 mi NNE 4.6 mph - N/A   Unknown
7:00 PM 68.0 °F 48.2 °F 49% 30.06 in 6.2 mi Calm Calm - N/A   Unknown
7:30 PM 66.2 °F 48.2 °F 52% 30.06 in 6.2 mi Calm Calm - N/A   Unknown
8:00 PM 66.2 °F 50.0 °F 56% 30.06 in 6.2 mi West 3.5 mph - N/A   Unknown
8:30 PM 62.6 °F 48.2 °F 59% 30.09 in 6.2 mi WNW 4.6 mph - N/A   Unknown
9:00 PM 60.8 °F 48.2 °F 63% 30.09 in 6.2 mi West 5.8 mph - N/A   Unknown
9:30 PM 59.0 °F 46.4 °F 63% 30.09 in 6.2 mi WNW 5.8 mph - N/A   Unknown
10:00 PM 57.2 °F 46.4 °F 67% 30.09 in 6.2 mi West 5.8 mph - N/A   Unknown
10:30 PM 57.2 °F 48.2 °F 72% 30.12 in 6.2 mi West 4.6 mph - N/A   Unknown
11:00 PM 57.2 °F 48.2 °F 72% 30.12 in 6.2 mi WSW 4.6 mph - N/A   Unknown
11:30 PM 59.0 °F 50.0 °F 72% 30.12 in 6.2 mi West 4.6 mph - N/A   Unknown